FW3284 Weather Reports


Display with metric or nautical units.
time (UTC)temp
F
wind
direction
speed
MPH
gust
MPH
rain 1hr
in
rain 24hr
in
rain mn
in
humidity
%
barometer
mb
20260503031521 49 257 0.0 0.0 0.00 0.00 0.00 60 1020.5
20260503024534 52 257 0.0 0.0 0.00 0.00 0.00 55 1020.4
20260503023014 52 257 0.0 0.0 0.00 0.00 0.00 56 1020.3
20260503021601 53 257 0.0 0.0 0.00 0.00 0.00 55 1020.2
20260503020041 54 270 0.0 0.0 0.00 0.00 0.00 53 1020.0
20260503014524 55 278 0.0 0.0 0.00 0.00 0.00 52 1019.9
20260503013059 56 282 0.0 0.0 0.00 0.00 0.00 48 1019.8
20260503013003 56 283 0.0 0.0 0.00 0.00 0.00 48 1019.8
20260503011550 56 296 0.0 0.0 0.00 0.00 0.00 48 1019.6
20260503010029 57 320 0.0 0.0 0.00 0.00 0.00 47 1019.6
20260503004505 57 309 0.0 0.0 0.00 0.00 0.00 45 1019.5
20260503003044 58 315 0.0 0.0 0.00 0.00 0.00 44 1019.5
20260503001523 58 309 0.0 0.0 0.00 0.00 0.00 45 1019.4
20260503000006 59 287 0.0 0.0 0.00 0.00 0.00 43 1019.4
20260502234538 59 281 0.0 0.0 0.00 0.00 0.00 43 1019.3
20260502233022 60 338 0.0 0.0 0.00 0.00 0.00 42 1019.5
20260502231508 60 290 0.0 0.0 0.00 0.00 0.00 40 1019.6
20260502230049 60 303 0.0 0.0 0.00 0.00 0.00 41 1019.6
20260502224534 60 314 0.0 0.0 0.00 0.00 0.00 43 1019.6
20260502223025 60 326 0.0 0.0 0.00 0.00 0.00 40 1019.6
20260502221608 61 319 0.0 1.0 0.00 0.00 0.00 48 1019.6
20260502220033 60 288 0.0 5.0 0.00 0.00 0.00 41 1019.5
20260502214516 61 288 0.0 0.0 0.00 0.00 0.00 40 1019.6
20260502213059 60 285 0.0 0.0 0.00 0.00 0.00 42 1019.7
20260502211540 60 307 0.0 0.0 0.00 0.00 0.00 42 1019.7
20260502210022 59 56 0.0 0.0 0.00 0.00 0.00 41 1019.8
20260502204504 60 305 0.0 1.0 0.00 0.00 0.00 43 1019.8
20260502203044 59 285 0.0 0.0 0.00 0.00 0.00 44 1020.1
20260502201526 60 360 0.0 1.0 0.00 0.00 0.00 45 1020.3
20260502200012 60 294 0.0 1.0 0.00 0.00 0.00 46 1020.5
20260502194600 59 300 0.0 1.0 0.00 0.00 0.00 43 1020.5
20260502193042 59 302 0.0 0.0 0.00 0.00 0.00 47 1020.5
20260502191527 59 275 0.0 0.0 0.00 0.00 0.00 47 1020.6
20260502190005 59 247 0.0 0.0 0.00 0.00 0.00 46 1020.6
20260502184550 59 321 0.0 0.0 0.00 0.00 0.00 47 1020.7
20260502183037 58 34 0.0 1.0 0.00 0.00 0.00 46 1020.7
20260502181520 57 278 0.0 1.0 0.00 0.00 0.00 46 1020.9
20260502170106 56 32 0.0 1.0 0.00 0.00 0.00 50 1021.2
20260502163022 57 303 0.0 1.0 0.00 0.00 0.00 56 1021.2
20260502161503 56 317 3.0 12.0 0.00 0.00 0.00 51 1021.2
20260502151558 54 340 0.0 0.0 0.00 0.00 0.00 65 1021.2
20260502123036 44 307 0.0 0.0 0.00 0.00 0.00 80 1019.8
20260502121517 43 262 0.0 0.0 0.00 0.00 0.00 80 1019.6
20260502114527 43 256 0.0 0.0 0.00 0.00 0.00 78 1019.5
20260502113003 43 256 0.0 0.0 0.00 0.00 0.00 77 1019.4
20260502111549 43 256 0.0 0.0 0.00 0.00 0.00 76 1019.2
20260502110032 43 256 0.0 0.0 0.00 0.00 0.00 79 1019.0
20260502104507 43 256 0.0 0.0 0.00 0.00 0.00 79 1019.0
20260502103053 44 256 0.0 0.0 0.00 0.00 0.00 78 1018.8
20260502101529 42 256 0.0 0.0 0.00 0.00 0.00 84 1018.7
20260502090108 43 276 0.0 0.0 0.00 0.00 0.00 81 1018.1
20260502071531 45 276 0.0 0.0 0.00 0.00 0.00 78 1018.3
20260502070037 44 276 0.0 0.0 0.00 0.00 0.00 83 1018.4
20260502064618 42 310 0.0 0.0 0.00 0.00 0.00 86 1018.4
20260502063050 42 26 0.0 0.0 0.00 0.00 0.00 84 1018.5
20260502061517 45 233 0.0 0.0 0.00 0.00 0.00 80 1018.3
20260502060057 47 233 0.0 0.0 0.00 0.00 0.00 68 1018.3
20260502054537 46 233 0.0 0.0 0.00 0.00 0.00 72 1018.3
20260502053019 46 233 0.0 0.0 0.00 0.00 0.00 71 1018.3
20260502051554 46 233 0.0 0.0 0.00 0.00 0.00 72 1018.1
20260502050040 46 233 0.0 0.0 0.00 0.00 0.00 75 1018.2
20260502044515 46 233 0.0 0.0 0.00 0.00 0.00 74 1018.2
20260502043050 46 233 0.0 0.0 0.00 0.00 0.00 72 1018.2
20260502041531 46 233 0.0 0.0 0.00 0.00 0.00 76 1018.3
20260502040005 47 233 0.0 0.0 0.00 0.00 0.00 74 1018.5
20260502034547 48 233 0.0 0.0 0.00 0.00 0.00 68 1018.6
20260502033032 50 233 0.0 0.0 0.00 0.00 0.00 61 1018.5